Location: Kumla
(59.1265°N, 15.1401°E)
Time: 08:45:48
(UTC+01:00)

Transit 2A - Pass Details

Date: 04 December 2023
Orbit: 600 x 953 km, 66.7° (Epoch: 22 February)

Event Time Altitude Azimuth Distance (km) Brightness Sun altitude
Rises 18:18:13 0° 255° (WSW) 3,066 10.6 -22.6°
Reaches altitude 10° 18:20:43 10° 261° (W) 2,101 9.4 -22.9°
Maximum altitude 18:25:15 45° 335° (NNW) 870 6.4 -23.5°
Enters shadow 18:26:00 41° 4° (N) 922 6.3 -23.6°
Drops below altitude 10° 18:29:30 10° 49° (NE) 1,978 - -24.0°
Sets 18:31:48 0° 56° (NE) 2,868 - -24.3°
